Cosmos 1354 Rocket - Orbit

View from above orbital plane
View from above orbital plane
View from above satellite
View from above satellite

Ground track
Ground track

The orbit data is extracted from the following two-line orbital elements,

1 13149U 82037B   13169.19121991  .00000130  00000-0  55006-4 0  4327
2 13149 074.0432 048.3604 0014125 251.5379 254.7011 14.34697331628221
Epoch (UTC): 18 June 2013 04:35:21
Eccentricity: 0.0014125
inclination: 74.0432°
perigee height: 766 km
apogee height: 786 km
right ascension of ascending node: 48.3604°
argument of perigee: 251.5379°
revolutions per day: 14.34697331
mean anomaly at epoch: 254.7011°
orbit number at epoch: 62822

The dashed part of the orbit path shows where the satellite is in the earth's shadow,  

Developed and maintained by Chris Peat, Heavens-Above GmbH. Please read the updated FAQ before sending e-mail. Imprint. DLR